GFSSGP_con_lsi_150.txt.gz
Lid_Strength_Index
-0 1 1 3 6 6 8 8 6 6 7 5 4 5 7 6 8 11 1 0 -0 -0 0 -1 -1 -1 -1 -1 -1 -1 -1 -1 -1 -1 -1 -1 -1 -1 -1 -1 -1 -1 -1 -1 -1 -1 -1 -1 -1
2 2 2 3 7 9 9 7 7 6 5 4 4 5 6 8 4 4 4 5 4 3 2 2 1 -0 -1 -1 -1 -1 -1 -1 -1 -1 -1 -1 -1 -1 -1 -1 -1 -1 -1 -1 -1 -1 -1 -1 -1
2 3 4 5 7 9 9 7 6 5 4 5 5 4 5 7 7 7 7 5 4 3 3 4 2 1 1 -0 -1 -1 -1 -1 -1 -1 -1 -1 -1 -1 -1 -1 -1 -1 -1 -1 -1 -1 -1 -1 -1
2 2 4 7 9 8 8 6 6 5 4 4 4 7 7 8 9 9 8 5 5 5 4 6 5 3 2 1 1 0 -1 -1 -1 -1 -1 -1 -1 -1 -1 -1 -1 -1 -1 -1 -1 -1 -1 -1 -1
2 3 6 8 8 8 7 7 5 5 5 5 4 6 6 9 8 8 7 7 7 7 6 6 7 6 5 3 3 2 1 0 -1 -1 -1 -1 -1 -1 -1 -1 -1 -1 -1 -1 -1 -1 -1 -1 -1
5 4 8 9 8 7 7 6 5 5 5 6 5 5 6 6 7 9 7 7 7 7 7 6 7 7 6 6 6 5 3 2 1 -1 -1 -1 -1 -1 -1 -1 -1 -1 -1 -1 -1 -1 -1 -1 -1
6 7 8 8 8 8 8 6 6 6 6 7 5 7 6 5 6 8 7 6 5 6 7 6 6 6 6 6 6 6 6 4 3 2 -0 -0 -0 -1 -1 -1 -1 -1 -1 -1 -0 -0 -0 -1 -1
5 6 9 8 8 9 7 7 7 6 8 7 6 7 7 5 5 5 4 4 4 4 4 4 4 4 4 4 5 6 6 6 5 3 2 2 0 -0 -1 -0 -0 -1 -1 -1 -0 -0 -0 -1 -0
5 8 9 8 8 8 8 8 8 7 7 7 7 7 6 6 5 5 5 5 5 5 5 5 5 5 5 4 4 3 3 3 2 3 3 0 -1 -2 -1 -0 -0 0 0 -0 -0 -0 -0 -0 -0
7 8 9 7 7 8 8 8 8 8 8 8 8 7 7 6 6 7 7 7 7 7 6 6 6 6 6 6 5 4 4 3 2 1 0 1 1 -1 -1 -1 0 -0 -0 0 0 0 0 -0 -1
8 9 8 8 8 8 8 8 8 9 9 8 8 9 8 7 7 6 7 7 7 7 7 7 6 5 6 6 6 6 5 4 3 3 2 2 1 -1 -1 -1 -1 -2 -1 -1 -1 -1 -1 -1 -1
10 9 8 9 9 9 9 8 9 8 9 8 8 8 8 8 8 8 8 7 7 6 6 6 6 5 5 5 5 5 4 4 3 3 2 2 2 1 -1 -1 -1 -1 -1 -1 -1 -1 -1 -1 -1
10 10 9 8 9 8 9 9 9 10 9 8 8 8 8 8 8 7 7 6 6 7 6 6 6 5 6 5 5 5 5 5 4 3 2 2 2 1 -0 -0 1 1 -1 -1 -0 -0 -0 -1 -1
9 9 9 9 8 8 9 9 8 9 8 9 9 8 8 8 8 7 7 7 7 7 7 6 6 6 6 5 5 5 5 5 5 4 4 3 3 2 2 1 0 -1 0 -1 -1 -0 0 0 -0
9 10 9 9 8 9 8 10 10 7 8 8 8 8 9 9 8 8 8 8 7 7 7 7 7 6 6 6 6 6 6 5 5 5 4 4 4 3 2 2 1 1 -1 0 1 -0 -0 0 0
9 9 9 9 8 8 8 10 9 7 8 9 8 8 9 9 9 8 8 8 7 7 7 7 7 6 6 6 6 6 6 5 5 5 5 5 4 4 3 3 2 1 0 -1 1 1 1 1 1
9 10 10 9 8 8 8 9 8 7 8 8 8 8 8 8 8 8 8 8 8 7 8 7 7 7 7 6 6 6 6 6 6 6 5 5 5 5 5 5 4 2 2 1 -0 0 3 1 1
11 11 10 11 9 9 9 9 8 8 8 8 7 7 8 8 9 9 8 8 8 7 7 7 7 7 7 7 7 7 7 6 6 6 6 6 6 6 6 6 6 4 2 2 1 0 0 3 1
10 11 11 9 9 11 10 9 8 8 8 8 8 8 8 9 9 9 8 8 8 8 8 8 8 8 8 8 9 9 9 8 8 7 7 7 7 7 7 7 6 5 3 2 1 1 1 1 2
10 10 10 8 8 10 10 10 8 9 9 8 8 8 9 10 9 9 9 9 8 8 8 8 8 8 8 9 9 9 9 9 9 8 7 7 8 7 7 6 6 5 5 4 2 1 1 1 1
10 11 10 11 9 9 9 11 9 9 9 8 8 8 10 10 10 10 10 9 9 9 8 9 9 8 9 10 9 9 9 9 9 9 10 9 9 8 7 6 6 5 5 5 4 2 2 2 1
12 9 10 11 11 13 9 15 10 9 10 10 9 9 9 10 10 10 10 9 9 9 8 8 9 9 9 10 11 11 12 12 11 11 10 9 8 8 8 8 7 6 5 4 3 3 2 1 2
11 10 11 11 11 12 11 13 11 9 10 9 9 9 9 10 10 10 10 10 9 9 9 8 8 9 10 10 10 11 12 12 12 12 11 10 9 9 9 8 8 8 6 6 5 4 3 1 1
8 10 9 9 10 14 11 11 12 9 9 9 8 9 9 10 10 10 10 10 9 8 9 8 9 10 10 10 10 12 12 12 12 12 12 11 10 10 10 10 9 7 7 6 5 4 3 2 1
8 9 14 15 15 15 10 11 10 9 8 8 8 9 9 10 10 10 11 10 10 10 10 10 10 10 10 10 10 10 11 11 12 12 12 12 12 12 11 10 10 9 8 7 6 5 3 2 1
9 9 14 18 16 15 11 13 10 8 9 8 8 9 10 10 11 12 12 12 11 11 10 10 10 10 10 10 10 10 11 11 12 12 12 12 12 12 12 12 11 10 9 9 7 4 4 1 1
9 11 8 12 12 15 12 11 8 9 10 9 10 10 12 12 11 12 12 12 12 11 11 10 10 10 9 10 10 11 11 12 12 12 13 13 13 12 12 12 12 11 11 10 8 8 8 5 2
7 7 12 12 18 18 14 12 12 10 10 11 12 12 11 12 12 12 12 13 12 12 10 10 10 11 10 9 11 11 11 12 12 12 14 13 13 13 13 13 13 12 12 10 10 10 10 9 7
9 10 10 11 13 17 17 14 9 11 9 11 12 11 13 12 13 13 12 13 13 12 10 10 11 12 12 11 11 12 13 13 13 14 14 14 13 13 13 13 14 14 13 12 12 13 12 12 12
7 9 9 14 15 14 15 15 8 9 8 8 10 11 12 12 13 13 13 13 12 12 12 12 12 12 13 13 13 13 13 13 14 14 14 13 14 14 14 14 15 15 14 14 15 15 15 14 14

GFSSGP_con_lsi_156.txt.gz
Lid_Strength_Index
1 2 1 2 7 7 9 8 6 7 6 4 4 7 8 7 9 13 4 3 3 3 2 2 0 -1 -1 -1 -1 -1 -1 -1 -1 -1 -1 -1 -1 -1 -1 -1 -1 -1 -1 -1 -1 -1 -1 -1 -1
2 2 2 4 9 10 9 7 8 6 5 4 5 5 7 9 5 6 5 4 2 4 4 3 2 1 0 -0 -0 -1 -1 -1 -1 -1 -1 -1 -1 -1 -1 -1 -1 -1 -1 -1 -1 -1 -1 -1 -1
2 2 5 6 8 10 9 7 6 5 4 5 5 5 5 7 5 7 6 4 2 3 5 5 3 3 2 2 1 1 0 -1 -1 -1 -1 -1 -1 -1 -1 -1 -1 -1 -1 -1 -1 -1 -1 -1 -1
4 4 4 8 9 7 7 6 5 5 4 4 5 7 5 5 6 7 5 3 3 3 6 6 5 4 4 3 3 2 2 1 -0 -1 -1 -1 -1 -1 -1 -1 -1 -1 -1 -1 -1 -1 -1 -1 -1
4 5 8 9 8 7 6 6 5 5 5 5 5 7 6 7 6 6 4 4 5 5 5 6 5 5 5 5 4 4 4 3 2 1 -0 -1 -1 -1 -1 -1 -1 -1 -1 -1 -1 -1 -1 -0 -1
7 5 9 10 8 7 7 6 5 5 5 4 6 6 6 6 6 6 5 5 5 5 4 5 3 3 3 3 4 5 5 4 4 3 2 2 1 -1 -1 -1 -1 -1 -1 -1 -1 -1 -1 -0 -1
7 7 8 8 8 8 7 5 5 5 5 6 4 7 5 5 6 5 6 5 4 3 3 2 2 1 -0 0 1 1 2 2 3 2 2 2 1 0 -1 -1 -1 -1 -1 -1 -1 -1 -0 -0 -0
6 7 8 8 9 8 7 6 4 5 7 4 4 7 7 4 6 6 6 5 3 2 2 2 1 2 1 1 0 -0 0 -0 -1 -1 -1 -1 1 1 -0 -0 -1 -1 -1 -1 -1 -0 -0 -0 0
5 9 9 9 8 8 6 7 5 5 6 5 4 4 3 3 4 4 4 4 3 3 2 2 3 3 2 2 2 0 -0 -0 -0 -0 -0 0 1 0 -0 2 1 -1 -1 -0 -1 -0 0 0 0
7 8 8 6 7 7 6 6 6 6 7 7 6 5 4 4 4 4 5 5 4 4 4 4 4 4 3 4 3 2 2 2 2 1 2 1 1 1 -1 -1 -2 -1 0 -0 -0 -0 0 0 -0
6 8 7 6 7 6 7 7 6 7 7 6 7 6 5 5 5 6 6 6 5 5 5 5 4 3 3 3 3 3 2 2 1 2 1 1 1 0 1 0 -0 -1 -2 -0 -0 -0 -0 -0 -0
8 7 7 7 7 7 7 6 7 7 7 5 6 5 6 6 6 6 6 6 6 5 5 5 4 3 3 3 3 3 3 2 3 3 1 2 3 2 2 2 1 1 0 -0 -0 -0 -0 -0 -0
7 7 7 7 7 7 7 7 7 7 6 5 5 6 6 6 6 6 6 6 5 6 5 4 4 4 3 3 3 3 3 3 3 3 2 3 3 4 3 3 2 1 1 1 1 0 0 0 -0
7 7 7 7 7 7 8 8 7 7 6 6 6 7 6 7 6 6 6 6 5 5 5 4 4 4 4 4 4 4 3 3 3 3 3 2 3 3 4 4 3 3 2 1 1 1 0 0 1
7 9 8 7 6 7 7 9 9 6 6 7 7 7 7 6 6 6 6 6 5 5 5 4 4 4 4 4 4 4 4 4 4 4 3 3 3 4 4 5 4 4 3 3 3 2 1 0 0
8 8 10 7 6 7 7 10 6 6 6 7 6 6 6 6 6 6 6 6 6 6 5 4 5 4 5 5 4 5 4 4 4 5 5 4 4 5 5 6 6 6 6 6 5 4 3 2 1
8 11 9 8 6 7 8 9 7 5 6 7 6 6 6 6 5 5 5 6 5 5 5 5 5 5 5 5 5 5 4 5 5 5 5 5 5 5 7 7 7 7 7 6 6 5 4 3 3
11 10 9 9 7 7 8 8 6 6 6 6 6 6 6 6 6 6 6 5 5 5 5 5 5 5 5 6 6 6 6 6 6 6 6 6 6 7 8 8 8 7 7 7 7 6 5 5 4
9 10 10 9 7 8 8 8 7 5 6 7 6 6 6 6 7 7 6 6 6 6 6 6 6 6 7 7 8 8 8 7 7 7 7 7 8 8 9 9 9 8 8 8 7 6 6 6 4
10 11 11 10 8 8 9 9 7 6 6 6 7 7 7 7 8 8 7 6 6 6 6 7 7 7 8 8 8 8 8 8 8 9 9 9 9 9 10 10 10 10 10 9 8 7 7 6 5
10 11 11 11 9 8 9 11 9 7 6 5 6 6 6 6 7 8 8 7 6 7 7 7 7 8 8 8 8 9 9 9 10 10 11 10 10 10 10 10 11 11 11 10 9 8 8 8 6
12 9 10 11 11 14 9 15 11 9 8 6 6 6 6 7 7 7 8 7 7 7 6 7 7 8 8 8 9 10 11 12 11 11 11 11 10 11 10 11 11 11 11 10 9 8 8 7 8
12 10 11 11 12 13 13 13 12 8 9 7 7 6 7 7 7 7 7 7 7 6 6 6 7 8 8 8 9 10 10 10 10 11 11 11 11 11 11 11 11 12 11 11 10 10 8 7 6
9 10 10 10 11 15 12 12 12 10 9 7 6 7 7 7 7 7 6 6 6 6 6 6 7 8 8 8 9 10 10 11 12 12 12 12 12 12 11 11 12 12 11 11 10 9 9 8 6
9 11 15 16 16 16 10 11 11 8 7 7 7 7 7 7 7 7 7 7 7 7 7 7 9 9 9 9 10 10 11 11 12 12 13 13 13 12 12 12 12 12 12 12 11 10 10 9 8
9 10 14 18 17 15 10 14 12 8 7 6 6 6 7 7 6 7 7 8 8 8 8 9 10 10 9 10 10 11 11 11 12 12 12 12 12 12 11 12 12 13 13 13 12 12 12 11 11
9 11 8 12 11 14 12 10 8 8 8 8 7 7 7 7 7 7 8 9 9 8 9 10 10 10 10 10 10 11 10 11 11 11 11 12 12 12 12 12 13 13 14 14 14 14 14 13 12
8 7 12 12 17 18 14 13 15 12 10 10 11 10 8 7 7 8 9 9 11 10 9 10 12 12 10 10 10 11 10 11 11 12 13 13 13 13 13 13 13 14 14 14 14 14 14 14 14
9 10 9 10 12 17 18 15 9 10 9 10 9 9 10 8 11 9 9 11 10 12 10 10 12 14 13 10 10 11 12 11 12 12 12 13 13 14 14 14 15 14 14 14 15 15 15 16 15
7 9 9 14 14 13 16 17 8 9 7 8 8 7 8 9 10 12 11 11 12 11 11 11 11 12 13 13 12 10 11 13 12 12 12 12 13 14 14 15 15 15 15 15 16 16 16 16 16

GFSSGP_con_lsi_159.txt.gz
Lid_Strength_Index
3 5 5 5 11 12 13 11 10 9 9 7 6 8 9 8 10 13 4 2 2 4 3 2 0 -1 -1 -1 -1 -1 -1 -1 -1 -1 -1 -1 -1 -1 -1 -1 -1 -1 -1 -1 -1 -1 -1 -1 -1
4 4 6 8 12 15 13 9 10 8 6 5 6 6 8 9 5 6 5 4 3 4 4 3 1 1 0 -0 -0 -0 -1 -1 -1 -1 -1 -1 -1 -1 -1 -1 -1 -1 -1 -1 -1 -1 -1 -1 -1
3 3 9 10 13 14 14 10 8 6 5 6 7 7 7 8 6 7 5 4 5 7 5 4 3 2 2 2 1 1 0 -0 -1 -1 -1 -1 -1 -1 -1 -1 -1 -1 -1 -1 -1 -1 -1 -1 -1
6 8 8 12 13 11 11 10 7 7 7 5 6 8 6 6 6 6 5 4 6 7 6 5 4 4 3 3 3 3 2 1 0 -1 -1 -1 -1 -1 -1 -1 -1 -1 -1 -1 -1 -1 -1 -0 -0
9 10 13 13 11 10 10 8 7 7 6 6 6 8 8 7 6 5 5 5 6 7 7 6 3 4 4 4 4 4 4 3 2 2 2 1 -0 -1 -1 -1 -1 -1 -1 -1 -1 -1 -1 -0 -0
11 10 14 14 12 10 9 8 7 6 6 6 7 7 8 6 6 5 6 7 7 7 6 6 3 1 2 2 2 2 2 2 2 2 2 2 1 -0 -1 -1 -1 -1 -1 -1 -1 -1 -0 -0 -0
12 13 14 13 12 10 9 7 8 8 8 6 5 8 7 7 7 6 7 7 6 5 6 5 4 2 1 -0 -1 -1 -1 -1 -2 -2 0 1 2 2 1 -1 -1 -1 -1 -1 -1 -0 -0 -0 -0
11 12 13 14 12 12 8 7 7 8 9 5 5 8 8 7 7 7 7 7 6 6 5 5 5 4 5 4 -0 -1 -1 -0 -1 -0 -0 -0 0 -1 2 3 2 1 -1 -1 -1 -0 -0 -0 0
10 13 15 13 12 11 8 9 7 7 7 6 5 5 4 4 7 8 8 7 8 5 6 5 5 5 5 5 3 3 1 1 1 2 1 2 3 3 2 -0 -1 -2 0 -0 -1 -0 -0 0 1
11 14 13 10 10 10 8 8 8 8 8 7 6 4 4 5 6 8 8 8 7 7 7 6 6 6 6 4 5 5 4 5 4 4 3 3 3 2 1 1 -1 -1 -1 -1 -1 0 0 0 -0
11 13 10 10 9 9 10 9 8 8 10 8 8 7 6 6 7 8 8 8 8 8 7 7 7 6 7 6 6 5 5 5 5 4 4 4 4 4 3 3 3 2 0 1 1 0 -1 -0 -0
13 9 9 10 9 10 10 10 9 9 8 6 7 7 7 8 8 8 8 8 8 8 7 7 7 7 7 7 6 6 5 5 5 5 4 5 5 5 5 4 4 3 3 3 2 1 -0 -0 -0
11 10 9 9 9 10 9 10 9 9 7 6 6 6 8 8 9 8 8 8 8 8 8 8 7 7 7 6 6 6 6 6 5 5 4 5 5 5 5 5 5 5 4 4 4 3 2 1 -0
9 9 10 9 9 9 10 10 10 9 8 7 7 8 8 8 8 9 9 9 9 8 8 7 7 7 7 7 7 7 6 6 6 6 5 5 5 6 6 6 6 6 6 6 6 5 4 3 1
9 11 11 10 9 9 9 11 10 7 7 8 8 8 8 8 8 8 9 9 9 8 7 7 7 7 7 7 7 7 7 6 7 7 6 6 6 7 7 7 8 7 7 7 7 6 5 5 3
12 12 15 10 9 9 10 14 9 8 8 9 8 8 7 8 8 8 8 8 8 8 8 7 6 7 8 8 8 7 7 7 7 7 7 7 7 8 8 9 9 8 8 8 8 7 7 6 5
13 16 14 12 9 11 12 14 11 9 9 9 9 9 9 9 9 9 9 8 8 7 7 7 7 7 8 8 8 8 8 8 8 8 8 8 9 8 9 9 9 8 8 8 8 7 7 8 7
15 14 14 14 11 11 12 12 11 9 9 10 10 9 9 9 9 8 8 8 8 8 8 8 8 8 9 9 9 9 9 9 8 9 9 10 10 10 10 10 10 9 9 9 8 8 8 8 7
12 13 14 12 10 11 12 12 11 9 10 10 10 10 10 11 10 9 8 8 9 9 8 9 9 9 10 10 11 11 11 10 11 11 11 11 11 11 11 11 11 11 11 11 10 9 9 8 7
12 13 14 12 10 10 12 13 11 9 9 9 9 9 11 11 10 9 9 9 9 9 9 9 10 10 10 10 10 11 11 11 11 11 12 11 12 11 12 11 12 12 12 11 11 10 10 9 8
12 13 14 13 12 12 12 13 12 9 9 7 7 8 10 11 11 9 8 9 9 10 10 10 10 10 10 10 10 11 11 11 12 12 12 12 11 11 11 12 12 13 12 12 11 11 10 10 8
14 11 11 12 14 17 12 18 14 11 9 8 7 9 10 10 9 9 9 10 10 10 9 9 9 10 9 10 11 12 12 13 12 12 12 12 11 11 11 12 12 13 12 12 12 11 11 10 10
12 10 12 12 14 15 15 15 16 11 11 10 10 9 10 10 10 10 10 10 10 9 9 9 9 9 9 10 11 11 12 11 11 12 12 12 12 11 12 12 13 13 13 12 12 11 11 10 10
9 11 12 12 13 18 13 13 14 12 10 9 9 9 10 10 10 9 9 9 10 10 9 10 10 10 10 10 11 12 13 13 13 13 13 13 12 12 12 12 13 13 13 13 12 12 11 11 10
11 13 18 18 18 18 12 13 14 10 9 8 9 10 10 10 10 11 11 11 11 11 10 11 11 11 11 11 12 13 13 13 14 14 14 14 13 13 13 13 13 13 13 12 12 12 12 12 12
12 12 16 20 19 17 12 15 15 9 8 8 8 9 9 10 10 11 12 12 11 10 11 12 11 11 11 12 13 13 13 14 13 14 14 13 13 12 12 13 13 13 13 12 13 13 13 13 13
12 14 9 13 13 17 14 13 10 8 9 9 9 9 10 10 11 11 11 11 11 11 12 12 12 12 11 12 13 13 13 13 14 14 14 14 14 13 14 14 14 14 14 14 14 14 15 14 14
10 8 13 14 18 20 16 15 16 12 11 9 11 11 9 9 10 11 11 12 12 12 12 13 13 13 12 13 14 14 14 13 13 13 14 15 15 14 15 15 15 15 15 15 15 15 15 15 15
10 11 11 11 14 20 20 18 11 11 10 10 10 10 11 11 12 11 11 12 12 14 12 14 14 15 14 12 13 14 14 13 13 13 14 14 15 14 15 15 15 16 16 16 16 16 17 17 16
8 10 11 16 16 15 17 16 9 9 8 8 8 9 9 11 12 13 14 13 14 13 12 12 13 13 14 15 13 12 13 15 13 13 13 13 15 14 15 15 15 15 16 17 18 18 18 19 19

GFSSGP_con_lsi_162.txt.gz
Lid_Strength_Index
3 6 7 6 11 12 14 12 11 9 10 7 6 8 9 8 10 13 4 2 4 4 3 1 -0 -0 -1 -1 -1 -1 -1 -1 -1 -1 -1 -1 -1 -1 -1 -1 -1 -1 -1 -1 -1 -1 -1 -1 -1
3 4 7 9 13 15 14 12 11 9 8 6 6 7 8 9 6 5 5 3 5 5 4 3 1 1 -0 -0 -0 -1 -1 -1 -1 -1 -1 -1 -1 -1 -1 -1 -1 -1 -1 -1 -1 -1 -1 -1 -1
5 4 9 11 14 15 14 12 9 7 6 6 7 6 8 8 6 6 5 5 6 6 5 4 3 2 1 1 1 0 -0 -1 -0 -1 -1 -1 -1 -1 -1 -1 -1 -1 -1 -1 -1 -1 -1 -1 -0
7 9 9 12 14 12 11 10 8 7 6 6 7 9 8 7 5 5 5 6 7 7 6 4 3 3 3 3 2 2 2 1 1 2 1 -1 -1 -1 -1 -1 -1 -1 -1 -1 -1 -1 -1 -0 -0
11 11 14 15 14 11 9 8 8 8 7 7 6 9 8 7 5 5 6 6 7 7 7 5 3 3 3 3 3 3 2 2 2 3 2 1 1 -0 -1 -1 -1 -1 -1 -1 -1 -1 -0 -0 -0
12 12 15 17 14 11 10 9 6 7 7 6 7 8 8 5 6 6 6 7 7 8 7 7 4 2 0 -0 -0 -1 -1 -0 1 2 2 2 2 2 1 1 -1 -1 -1 -1 -1 -1 -1 -0 -0
13 14 16 15 14 12 10 8 9 8 7 7 5 9 8 7 6 6 7 8 8 8 7 7 6 4 1 -1 -1 -2 -1 -1 0 0 0 0 2 2 3 3 2 1 1 -0 -1 -1 -0 -0 -0
12 13 15 15 14 13 10 8 8 9 9 5 4 9 9 8 6 7 8 8 8 8 8 7 6 5 6 5 -0 -0 -0 1 1 1 1 2 2 1 1 0 2 3 2 2 0 -0 -0 -0 0
12 14 16 15 14 12 9 10 8 8 7 7 5 5 5 7 8 9 10 9 9 8 8 6 6 6 6 5 3 3 2 2 2 2 2 3 4 3 3 2 1 1 0 2 2 2 2 0 0
13 16 14 11 12 12 10 10 8 9 9 7 6 4 4 7 9 9 10 10 9 9 9 8 7 7 7 5 6 6 5 6 5 4 4 4 5 4 3 2 2 1 1 1 -0 -0 -0 1 -0
13 14 12 12 11 11 11 11 9 9 11 8 7 6 6 7 8 8 9 9 9 8 8 8 7 7 8 7 7 7 7 7 6 5 5 5 5 5 4 5 4 4 3 3 3 3 2 2 2
13 10 11 11 11 10 11 11 10 11 9 6 6 6 6 8 8 9 9 9 9 9 9 8 8 8 8 7 8 8 7 7 6 6 5 6 6 6 6 6 5 5 6 7 6 5 5 4 2
12 11 10 10 10 11 9 11 9 9 7 7 6 6 8 9 9 9 9 9 9 9 9 9 8 9 8 8 8 8 7 7 7 7 6 6 7 7 6 7 7 7 7 8 8 7 6 6 4
10 11 11 10 10 10 11 11 9 9 8 7 7 9 9 9 9 9 9 9 9 9 9 8 9 9 8 9 8 9 8 8 7 7 7 7 7 8 8 8 8 8 8 8 8 7 7 6 5
10 12 12 11 10 11 11 13 12 8 8 8 8 8 9 9 9 9 9 9 8 8 8 8 8 8 9 9 8 8 8 8 8 8 8 9 8 9 9 9 9 9 8 8 8 8 7 7 6
12 13 15 11 11 11 11 14 11 9 9 10 10 9 9 9 9 10 9 9 9 8 8 8 7 8 9 9 9 9 9 8 9 9 10 10 9 9 10 10 10 9 9 9 9 9 9 8 8
14 17 15 13 11 12 13 14 11 9 9 10 10 10 10 10 10 9 8 9 9 9 9 9 9 10 10 10 10 9 9 10 10 10 10 10 10 10 10 10 11 10 10 10 10 10 10 9 9
17 16 16 15 12 12 13 14 12 11 10 10 11 11 11 11 11 9 9 9 9 10 9 9 9 10 10 10 10 10 10 11 11 12 11 11 11 11 12 12 12 12 12 12 12 11 10 9 10
13 14 15 14 11 12 13 14 13 11 11 11 12 12 11 11 10 9 9 9 9 10 10 10 10 11 11 11 12 12 12 12 12 12 12 12 12 12 12 12 12 12 13 13 12 12 11 10 9
13 15 15 14 11 12 13 14 12 11 10 10 10 11 11 11 10 9 10 10 10 10 10 10 11 11 11 11 12 12 12 12 12 12 12 12 12 12 12 13 13 13 13 12 12 12 12 11 9
14 14 15 15 13 13 13 15 14 11 9 9 9 10 11 11 11 10 10 10 11 11 10 10 10 10 10 11 11 11 11 12 13 13 13 12 12 12 13 13 14 13 13 13 13 12 12 12 11
15 12 12 13 15 18 13 19 15 12 12 11 10 11 12 11 10 10 10 11 11 11 10 10 10 10 11 10 11 12 13 13 13 13 13 12 11 12 12 13 14 13 13 13 13 12 12 11 12
14 11 12 12 15 16 16 17 18 13 13 13 12 11 10 10 10 10 10 10 10 10 11 12 11 11 11 11 11 12 13 13 13 13 13 13 12 12 13 12 13 13 13 13 13 13 13 12 12
10 12 12 13 14 19 15 16 18 14 11 12 11 11 11 11 10 10 11 10 11 12 13 12 12 12 11 11 12 13 13 14 14 15 15 14 13 13 13 13 13 13 13 13 13 13 13 13 13
11 14 19 19 19 20 13 15 15 11 10 10 11 11 10 10 10 11 11 12 12 13 13 12 12 12 12 12 13 13 14 14 15 15 15 15 14 14 14 14 14 14 14 13 13 13 13 13 13
13 13 17 19 19 17 13 16 15 9 9 9 10 10 10 10 11 11 11 12 12 12 13 12 12 12 12 13 13 14 14 15 15 15 15 15 14 14 14 14 14 14 14 14 13 14 14 13 13
12 14 10 14 14 17 16 13 10 9 9 10 10 10 10 10 11 11 11 11 12 13 13 12 12 12 13 13 14 14 14 15 15 15 16 15 15 14 15 15 15 15 15 15 15 15 16 15 15
11 10 15 14 17 19 17 16 16 12 11 10 11 11 10 11 11 12 11 12 12 13 13 13 12 13 13 14 14 14 14 14 14 14 15 15 15 15 15 15 15 15 16 16 16 16 16 17 17
10 13 12 12 14 18 21 18 11 11 10 10 10 10 10 10 12 12 12 12 13 13 14 14 14 16 14 13 13 13 14 14 13 13 14 15 15 15 15 15 15 16 16 17 17 18 18 18 18
8 11 11 16 16 15 17 16 9 9 8 8 9 9 11 11 12 13 13 13 14 13 14 14 14 13 15 14 12 13 14 15 13 13 13 15 16 15 15 15 15 16 17 18 18 18 19 20 20